This demonstration page uses our WeatherBlox Daily Observations layout. Learn more.

Left ArrowRight Arrow

36.19886, -115.1175

Hourly Observations for December 5, 2021

Temp ( °F °C ) Dew Point ( °F °C ) Humidity (%) Winds ( mph kmh ) Pressure ( in mb ) Visibility ( mi km ) Precip ( " mm )
12:53 am 00:53 Clear 54 12.2 20 -6.7 26 26 NW 12 19 30.13 1020 10 16 N/A
1:53 am 01:53 Clear 54 12.2 20 -6.7 26 26 NW 9 15 30.14 1021 10 16 N/A
2:53 am 02:53 Clear 56 13.3 20 -6.7 24 24 N 13 20 30.14 1021 10 16 N/A
3:53 am 03:53 Clear 55 12.8 20 -6.7 25 25 NW 16 26 30.14 1021 10 16 N/A
4:53 am 04:53 Clear 55 12.8 21 -6.1 26 26 WNW 9 15 30.14 1021 10 16 N/A
5:53 am 05:53 Clear 55 12.8 22 -5.6 28 28 W 10 17 30.15 1021 10 16 N/A
6:53 am 06:53 Sunny 51 10.6 21 -6.1 31 31 NNE 3 6 30.17 1022 10 16 N/A
7:53 am 07:53 Sunny 57 13.9 21 -6.1 25 25 NNW 8 13 30.17 1022 10 16 N/A
8:53 am 08:53 Sunny 60 15.6 22 -5.6 23 23 NW 15 24 30.18 1022 10 16 N/A
9:53 am 09:53 Sunny 65 18.3 22 -5.6 19 19 W 7 11 30.18 1022 10 16 N/A
10:53 am 10:53 Sunny 66 18.9 24 -4.4 20 20 SSE 6 9 30.15 1021 10 16 N/A
11:53 am 11:53 Sunny 69 20.6 24 -4.4 18 18 VRB 3 6 30.11 1020 10 16 N/A
12:53 pm 12:53 Sunny 77 25 17 -8.3 10 10 VRB 7 11 30.07 1018 10 16 N/A
1:53 pm 13:53 Sunny 78 25.6 13 -10.6 8 8 N 10 17 30.04 1017 10 16 N/A
2:53 pm 14:53 Sunny 77 25 14 -10 9 9 NNW 15 24 30.03 1017 10 16 N/A
3:53 pm 15:53 Sunny 76 24.4 14 -10 9 9 NNW 17 28 30.03 1017 10 16 N/A
4:53 pm 16:53 Clear 73 22.8 13 -10.6 10 10 NNW 9 15 30.05 1018 10 16 N/A
5:53 pm 17:53 Clear 71 21.7 14 -10 11 11 NNW 6 9 30.07 1018 10 16 N/A
6:53 pm 18:53 Clear 67 19.4 14 -10 13 13 NNW 9 15 30.08 1019 10 16 N/A
7:53 pm 19:53 Clear 65 18.3 15 -9.4 14 14 NNE 7 11 30.09 1019 10 16 N/A
8:53 pm 20:53 Clear 63 17.2 20 -6.7 19 19 N 8 13 30.10 1019 10 16 N/A
9:53 pm 21:53 Clear 61 16.1 17 -8.3 18 18 NE 6 9 30.11 1020 10 16 N/A
10:53 pm 22:53 Clear 61 16.1 16 -8.9 17 17 NNW 9 15 30.11 1020 10 16 N/A
11:53 pm 23:53 Clear 62 16.7 15 -9.4 16 16 NNW 8 13 30.11 1020 10 16 N/A

Powered by AerisWeather